www.pogodaiklimat.ru

Погода и климат >> Архив погоды >> Финляндия >> Муонио Лаукукеро


ПОГОДА в Муонио Лаукукеро

  • Прогноз погоды в Муонио Лаукукеро
  • Монитор погоды в Муонио Лаукукеро

АРХИВ ПОГОДЫ в Муонио Лаукукеро

Время (UTC), дата Ветер
(напр.,м/с)
 
Видим.   Явления Облачность Т
(С)
Тd
(С)
f
(%)
Тe
(С)
Тes
(С)
Комфортность P
(гПа)
Po
(гПа)
Тmin
(С)
Tmax
(С)
R
(мм)
R24
(мм)
S
(см)
04 9.01 СВ 15 н/о н/о -9.4 -10.4 92 -22 -22 1010.6 915.7
05 9.01 С 13 н/о н/о -9.5 -10.6 92 -21 -21 1011.5 916.5
06 9.01 СВ 12 н/о н/о -10.3 -11.3 92 -22 -22 1013.6 918.1
08 9.01 СВ 10 н/о н/о -9.8 -10.9 92 -21 -21 1014.2 918.9
07 9.01 СВ 12 н/о н/о -10.3 -11.3 92 -22 -22 1013.6 918.1
09 9.01 С 2 н/о н/о -8.9 -9.8 93 -13 -13 1015.3 920.2
10 9.01 С 2 н/о н/о -8.9 -9.8 93 -13 -13 1015.3 920.2
11 9.01 СЗ 4 н/о н/о -8.5 -9.5 92 -15 -15 1015.3 920.3
12 9.01 СЗ 5 н/о н/о -9.0 -10.0 92 -17 -17 1015.9 920.7
14 9.01 СЗ 5 н/о н/о -8.1 -9.0 93 -16 -16 1015.8 920.9
13 9.01 СЗ 5 н/о н/о -9.0 -10.0 92 -17 -17 1015.9 920.7
15 9.01 З 9 н/о н/о -7.8 -8.7 93 -18 -18 1015.6 920.8
16 9.01 З 9 н/о н/о -7.8 -8.7 93 -18 -18 1015.6 920.8
17 9.01 З 9 н/о н/о -7.5 -8.4 93 -17 -17 1015.2 920.5
18 9.01 З 10 н/о н/о -8.3 -9.2 93 -19 -19 1015.0 920.1
20 9.01 СЗ 10 н/о н/о -8.2 -9.2 92 -19 -19 1015.0 920.1
19 9.01 З 10 н/о н/о -8.3 -9.2 93 -19 -19 1015.0 920.1
21 9.01 З 9 н/о н/о -7.8 -8.7 93 -18 -18 1014.4 919.8
22 9.01 З 9 н/о н/о -7.8 -8.7 93 -18 -18 1014.4 919.8
23 9.01 З 7 н/о н/о -8.5 -9.4 93 -18 -18 1014.0 919.2
00 10.01 ЮЗ 13 н/о н/о -8.6 -9.6 92 -20 -20 1011.7 917.0
02 10.01 ЮЗ 14 н/о н/о -8.6 -9.6 92 -21 -21 1010.6 916.0
01 10.01 ЮЗ 13 н/о н/о -8.6 -9.6 92 -20 -20 1011.7 917.0
03 10.01 ЮЗ 18 н/о н/о -9.6 -10.7 92 -23 -23 1007.8 913.1
04 10.01 ЮЗ 18 н/о н/о -9.6 -10.7 92 -23 -23 1007.8 913.1
05 10.01 ЮЗ 16 н/о н/о -11.1 -12.4 90 -24 -24 1006.2 911.2
06 10.01 ЮЗ 20 н/о н/о -11.5 -12.8 90 -26 -26 1001.8 907.0
08 10.01 ЮЗ 21 н/о н/о -10.5 -11.7 91 -25 -25 999.9 905.7
07 10.01 ЮЗ 20 н/о н/о -11.5 -12.8 90 -26 -26 1001.8 907.0
09 10.01 ЮЗ 20 н/о н/о -9.0 -10.0 92 -23 -23 995.2 901.9
10 10.01 ЮЗ 20 н/о н/о -9.0 -10.0 92 -23 -23 995.2 901.9
11 10.01 ЮЗ 21 н/о н/о -8.5 -9.5 92 -22 -22 992.4 899.5
12 10.01 ЮЗ 20 н/о н/о -7.4 -8.3 93 -21 -21 988.0 895.9
14 10.01 ЮЗ 22 н/о н/о -7.1 -7.9 94 -21 -21 984.7 893.0
13 10.01 ЮЗ 20 н/о н/о -7.4 -8.3 93 -21 -21 988.0 895.9
15 10.01 ЮЗ 20 н/о н/о -6.5 -7.2 95 -20 -20 979.9 888.9
16 10.01 ЮЗ 20 н/о н/о -6.5 -7.2 95 -20 -20 979.9 888.9
17 10.01 ЮЗ 21 н/о н/о -6.2 -6.9 95 -19 -19 978.1 887.3
18 10.01 ЮЗ 24 н/о н/о -4.2 -4.6 97 -17 -17 974.1 884.4
20 10.01 ЮЗ 22 н/о н/о -4.2 -4.7 96 -17 -17 973.1 883.4
19 10.01 ЮЗ 24 н/о н/о -4.2 -4.6 97 -17 -17 974.1 884.4
21 10.01 З 17 н/о н/о -6.4 -7.2 94 -19 -19 973.7 883.2
22 10.01 З 17 н/о н/о -6.4 -7.2 94 -19 -19 973.7 883.2
23 10.01 З 20 н/о н/о -7.3 -8.1 94 -21 -21 972.6 882.0
00 11.01 З 18 н/о н/о -7.7 -8.6 93 -21 -21 971.1 880.5
02 11.01 ЮЗ 18 н/о н/о -7.8 -8.6 94 -21 -21 969.4 878.9
01 11.01 З 18 н/о н/о -7.7 -8.6 93 -21 -21 971.1 880.5
03 11.01 З 18 н/о н/о -7.5 -8.3 94 -20 -20 966.8 876.6
04 11.01 З 18 н/о н/о -7.5 -8.3 94 -20 -20 966.8 876.6
05 11.01 З 18 н/о н/о -7.0 -7.8 94 -20 -20 966.1 876.2
06 11.01 З 17 н/о н/о -6.7 -7.4 95 -19 -19 964.9 875.2
08 11.01 З 17 н/о н/о -6.6 -7.4 94 -19 -19 964.2 874.6
07 11.01 З 17 н/о н/о -6.7 -7.4 95 -19 -19 964.9 875.2
09 11.01 СЗ 18 н/о н/о -6.1 -6.8 95 -19 -19 966.3 876.6
10 11.01 СЗ 18 н/о н/о -6.1 -6.8 95 -19 -19 966.3 876.6
11 11.01 СЗ 16 н/о н/о -6.2 -6.9 95 -18 -18 967.1 877.4
12 11.01 С 21 н/о н/о -6.3 -7.0 95 -19 -19 970.8 880.7
14 11.01 СЗ 19 н/о н/о -6.2 -6.9 95 -19 -19 972.4 882.2
13 11.01 С 21 н/о н/о -6.3 -7.0 95 -19 -19 970.8 880.7
15 11.01 СЗ 20-25
{25}
н/о н/о -5.7 -6.3 96 -19 -19 972.9 882.8
16 11.01 СЗ 22 н/о н/о -4.7 -5.2 96 -18 -18 973.5 883.6
17 11.01 СЗ 25 н/о н/о -5.1 -5.6 96 -19 -19 974.2 884.2
18 11.01 СЗ 26-33
{33}
н/о н/о -6.0 -6.7 95 -20 -20 975.7 885.2 -6.9 -4.6
20 11.01 СЗ 28 н/о н/о -6.7 -7.4 95 -21 -21 976.6 885.8
19 11.01 СЗ 27 н/о н/о -6.1 -6.8 95 -20 -20 976.0 885.5
21 11.01 СЗ 31-38
{38}
н/о н/о -7.0 -7.8 94 -22 -22 976.4 885.5
22 11.01 СЗ 27 н/о н/о -6.7 -7.4 95 -21 -21 977.2 886.3
23 11.01 СЗ 28 н/о н/о -7.3 -8.1 94 -22 -22 976.9 885.9
00 12.01 СЗ 24 н/о н/о -7.5 -8.3 94 -22 -22 978.9 887.6
02 12.01 СЗ 26 н/о н/о -7.3 -8.2 93 -22 -22 979.3 888.0
01 12.01 СЗ 24 н/о н/о -7.5 -8.3 94 -22 -22 978.9 887.6
03 12.01 СЗ 25 н/о н/о -7.3 -8.1 94 -22 -22 979.7 888.5
04 12.01 СЗ 25 н/о н/о -7.3 -8.1 94 -22 -22 979.7 888.5
05 12.01 СЗ 23 н/о н/о -7.0 -7.8 94 -21 -21 980.1 888.9
06 12.01 СЗ 25 н/о н/о -7.0 -7.8 94 -21 -21 980.9 889.6
08 12.01 СЗ 22 н/о н/о -7.1 -7.9 94 -21 -21 981.9 890.5
07 12.01 СЗ 25 н/о н/о -7.0 -7.8 94 -21 -21 980.9 889.6
09 12.01 СЗ 21 н/о н/о -8.0 -8.8 94 -22 -22 982.7 891.0
10 12.01 СЗ 21 н/о н/о -8.0 -8.8 94 -22 -22 982.7 891.0
11 12.01 СЗ 21 н/о н/о -8.1 -9.0 93 -22 -22 983.2 891.3
12 12.01 н/о н/о -8.7 -9.6 93 984.6 892.4
14 12.01 СЗ 17 н/о н/о -9.0 -10.0 92 -22 -22 985.1 892.7
13 12.01 н/о н/о -8.7 -9.6 93 984.6 892.4
15 12.01 СЗ 15 н/о н/о -9.5 -10.5 92 -22 -22 985.5 893.0
16 12.01 СЗ 15 н/о н/о -9.5 -10.5 92 -22 -22 985.5 893.0
17 12.01 СЗ 13 н/о н/о -9.5 -10.5 92 -21 -21 985.4 892.9
18 12.01 СЗ 14 н/о н/о -9.6 -10.6 92 -22 -22 985.1 892.6
20 12.01 СЗ 17 н/о н/о -9.2 -10.2 92 -22 -22 984.5 892.1
19 12.01 СЗ 14 н/о н/о -9.6 -10.6 92 -22 -22 985.1 892.6
21 12.01 СЗ 14 н/о н/о -9.4 -10.4 92 -22 -22 983.9 891.5
22 12.01 СЗ 14 н/о н/о -9.4 -10.4 92 -22 -22 983.9 891.5
23 12.01 СЗ 14 н/о н/о -9.6 -10.7 92 -22 -22 983.5 891.1
00 13.01 СЗ 11 н/о н/о -9.4 -10.4 92 -20 -20 982.6 890.4
02 13.01 СЗ 11 н/о н/о -9.5 -10.5 92 -21 -21 982.1 889.9
01 13.01 СЗ 11 н/о н/о -9.4 -10.4 92 -20 -20 982.6 890.4
03 13.01 СЗ 8 н/о н/о -9.8 -10.9 92 -20 -20 981.0 888.7
04 13.01 СЗ 8 н/о н/о -9.8 -10.9 92 -20 -20 981.0 888.7
05 13.01 СЗ 7 н/о н/о -10.4 -11.5 92 -20 -20 980.6 888.2
06 13.01 С 5 н/о н/о -10.1 -11.2 92 -18 -18 979.6 887.4
08 13.01 С 3 н/о н/о -9.8 -10.9 92 -16 -16 979.0 887.0
07 13.01 С 4-6
{8}
н/о н/о -10.0 -11.2 91 -17 -17 979.6 887.5
09 13.01 Ю 2 н/о н/о -10.0 -11.1 92 -15 -15 978.5 886.5
10 13.01 Ю 2 н/о н/о -10.0 -11.1 92 -15 -15 978.5 886.5
11 13.01 Ю 3 н/о н/о -10.1 -11.3 91 -16 -16 978.1 886.0
12 13.01 ЮЗ 3 н/о н/о -10.1 -11.2 92 -16 -16 977.2 885.2
14 13.01 Ю 2 н/о н/о -10.3 -11.5 91 -15 -15 977.2 885.2
13 13.01 ЮЗ 3 н/о н/о -10.1 -11.2 92 -16 -16 977.2 885.2
15 13.01 ЮЗ 2 н/о н/о -10.0 -11.1 92 -15 -15 976.9 885.0
16 13.01 ЮЗ 2 н/о н/о -10.0 -11.1 92 -15 -15 976.9 885.0
17 13.01 Ю 3 н/о н/о -10.3 -11.4 92 -16 -16 976.9 885.0
18 13.01 З 2 н/о н/о -10.2 -11.3 92 -15 -15 977.1 885.2
20 13.01 В 3 н/о н/о -10.3 -11.4 92 -16 -16 977.3 885.3
19 13.01 З 2 н/о н/о -10.2 -11.3 92 -15 -15 977.1 885.2
21 13.01 В 6 н/о н/о -10.1 -11.3 91 -19 -19 977.5 885.5
22 13.01 В 6 н/о н/о -10.1 -11.3 91 -19 -19 977.5 885.5
23 13.01 В 7 н/о н/о -10.1 -11.2 92 -19 -19 977.6 885.6
00 14.01 В 7 н/о н/о -10.4 -11.5 92 -20 -20 978.3 886.1
02 14.01 В 6 н/о н/о -10.5 -11.7 91 -19 -19 978.9 886.7
01 14.01 В 7 н/о н/о -10.4 -11.5 92 -20 -20 978.3 886.1
03 14.01 В 2 н/о н/о -10.5 -11.6 92 -15 -15 979.9 887.5
04 14.01 В 2 н/о н/о -10.5 -11.6 92 -15 -15 979.9 887.5
05 14.01 н/о н/о -10.5 -11.6 92 980.0 887.6
06 14.01 В 8 н/о н/о -10.6 -11.8 91 -20 -20 980.8 888.3
08 14.01 В 11 н/о н/о -10.9 -12.1 91 -22 -22 981.4 888.8
07 14.01 В 8 н/о н/о -10.6 -11.8 91 -20 -20 980.8 888.3
09 14.01 В 12-12
{12}
н/о н/о -10.7 -11.9 91 -22 -22 982.0 889.3
10 14.01 В 12 н/о н/о -10.4 -11.5 92 -22 -22 982.6 890.0
11 14.01 В 12 н/о н/о -10.7 -11.8 92 -22 -22 983.3 890.5
12 14.01 В 12-13
{14}
н/о н/о -10.0 -11.1 92 -22 -22 983.8 891.2
14 14.01 В 11 н/о н/о -10.0 -11.1 92 -21 -21 985.0 892.3
13 14.01 В 12 н/о н/о -9.9 -11.0 92 -21 -21 984.3 891.7
15 14.01 В 11-12
{12}
н/о н/о -10.9 -12.1 91 -22 -22 986.1 893.1
16 14.01 В 11 н/о н/о -11.1 -12.3 91 -22 -22 986.7 893.5
17 14.01 В 8 н/о н/о -11.0 -12.3 90 -21 -21 987.8 894.5
18 14.01 В 10-11
{11}
н/о н/о -11.3 -12.5 91 -22 -22 988.4 895.0 -11.3 -9.8
20 14.01 В 9 н/о н/о -10.7 -11.9 91 -21 -21 989.3 896.0
19 14.01 В 10 н/о н/о -10.8 -12.0 91 -22 -22 988.7 895.4
21 14.01 В 9-9
{10}
н/о н/о -10.0 -11.1 92 -20 -20 989.7 896.6
22 14.01 В 9 н/о н/о -9.8 -11.0 91 -20 -20 990.1 897.0
23 14.01 В 10 н/о н/о -10.1 -11.2 92 -21 -21 990.3 897.1
00 15.01 В 8-8
{10}
н/о н/о -10.3 -11.5 91 -20 -20 990.8 897.5
02 15.01 В 9 н/о н/о -10.3 -11.5 91 -21 -21 991.3 898.0
01 15.01 В 9 н/о н/о -10.4 -11.5 92 -21 -21 991.1 897.7
03 15.01 СВ 6-7
{9}
н/о н/о -10.1 -11.2 92 -19 -19 991.6 898.3
04 15.01 СВ 7 н/о н/о -9.9 -11.0 92 -19 -19 991.5 898.2
05 15.01 В 7 н/о н/о -9.9 -11.0 92 -19 -19 991.4 898.2
06 15.01 В 6-7
{7}
н/о н/о -10.0 -11.1 92 -19 -19 991.7 898.4 -11.3 -9.8
08 15.01 В 5 н/о н/о -10.1 -11.2 92 -18 -18 992.1 898.8
07 15.01 В 6 н/о н/о -10.0 -11.1 92 -19 -19 991.9 898.6
09 15.01 СВ 5-6
{6}
н/о н/о -10.1 -11.2 92 -18 -18 992.3 899.0
10 15.01 СВ 6-7
{7}
н/о н/о -10.1 -11.2 92 -19 -19 992.4 899.0
11 15.01 СВ 7 н/о н/о -10.1 -11.2 92 -19 -19 992.1 898.7
12 15.01 СВ 6-7
{8}
н/о н/о -10.2 -11.3 92 -19 -19 992.0 898.6
14 15.01 СВ 8 н/о н/о -10.5 -11.7 91 -20 -20 992.1 898.6
13 15.01 СВ 6 н/о н/о -10.3 -11.4 92 -19 -19 991.9 898.5
15 15.01 В 5-6
{9}
н/о н/о -10.7 -11.9 91 -19 -19 992.4 898.8
16 15.01 В 4 н/о н/о -11.0 -12.2 91 -18 -18 992.6 898.9
17 15.01 В 6 н/о н/о -11.4 -12.7 90 -20 -20 992.7 898.9
18 15.01 В 7-7
{8}
н/о н/о -11.8 -13.1 90 -21 -21 992.9 898.9 -11.8 -10.0
20 15.01 В 8 н/о н/о -12.5 -13.8 90 -23 -23 993.5 899.1
19 15.01 В 8 н/о н/о -12.3 -13.6 90 -22 -22 993.1 898.9
21 15.01 В 9-9
{9}
н/о н/о -12.8 -14.2 89 -24 -24 993.8 899.3
22 15.01 В 9 н/о н/о -13.0 -14.4 89 -24 -24 994.2 899.6
23 15.01 В 7 н/о н/о -12.8 -14.2 89 -22 -22 994.3 899.8
00 16.01 В 6-7
{8}
н/о н/о -12.5 -13.9 89 -21 -21 994.4 900.0
02 16.01 В 7 н/о н/о -12.2 -13.6 89 -22 -22 994.3 900.0
01 16.01 В 6 н/о н/о -12.4 -13.8 89 -21 -21 994.4 900.0

 

Местоположение метеостанции Муонио Лаукукеро (Финляндия): широта 68.06 долгота 24.03 высота над уровнем моря 760 м.

В архиве по умолчанию представлена погода в Муонио Лаукукеро за последнюю неделю. Архивные данные за месяц целиком и за предыдущие месяцы, начиная с января 2011 года, Вы можете получить, выбрав интересующий диапазон дат из раскрывающегося списка и нажав кнопку "Ввод!".


*Определитесь, кто Вы:
робот инопланетянин человек

Внимание! Время в таблицах - всемирное. Для получения местного времени необходимо прибавить поправку, которая равна 1 ч.

Смотрите также архив погоды в соседних городах и на ближайших метеорологических станциях:

Погода в Киттиля Ломполонвуома (Финляндия) (10 км)
Погода в Муонио Саммалтунтури (Финляндия) (11 км)
Погода в Киттила Маторова (Финляндия) (11 км)
Погода в Киттила Кенттарова (Финляндия) (12 км)
Погода в Муонио Аламуонио (Финляндия) (17 км)
Погода в Киттила Левитунтури (Финляндия) (46 км)
Погода в Киттиля (Финляндия) (53 км)
Погода в Киттиля (Финляндия) (58 км)
Погода в Паркаломполо (Швеция) (62 км)
Погода в Наккала (Финляндия) (63 км)

Пояснения к столбцам:

Ветер - указаны скорость ветра в м/с - средняя за 10 мин, порывы в срок и между сроками (в фигурных скобках) и направление, откуда дует ветер: С - северный, СВ - северо-восточный, В - восточный, ЮВ - юго-восточный, Ю - южный, ЮЗ - юго-западный, З - западный, СЗ - северо-западный.
Видимость - горизонтальная дальность видимости в метрах или километрах. При видимости от 1 до 10 км при отсутствии осадков обычно наблюдается дымка, при ухудшении видимости до 1 км и менее - туман. В сухую погоду видимость может ухудшаться дымом, пылью или мглою.
Явления - указаны атмосферные явления, наблюдавшиеся в срок или в последний час перед сроком; фигурными скобками обозначены явления, наблюдавшиеся между сроками (за 1-3 часа до срока); квадратными скобками обозначены град или гололедные отложения с указанием их диаметра в мм.
Облачность - указаны через наклонную черту общая и нижняя облачность в баллах и высота нижней границы облаков в метрах; квадратными скобками обозначены формы облаков: Ci - перистые, Cs - перисто-слоистые, Cc - перисто-кучевые, Ac - высококучевые, As - высокослоистые, Sc - слоисто-кучевые, Ns - слоисто-дождевые, Cu - кучевые, Cb - кучево-дождевые. Подробнее классификацию облаков см. в Атласе облаков (PDF).
T - Температура воздуха - температура, измеренная на высоте 2 м над землей.
Td - Температура точки росы - температура, при понижении до которой содержащийся в воздухе водяной пар достигнет насыщения.
f - Относительная влажность воздуха - влажноcть воздуха, измеренная на высоте 2 м над землей.
Te - Эффективная температура - температура, которую ощущает одетый по сезону человек в тени. Характеристика душности погоды. При расчете учитывается влияние влажности воздуха и скорости ветра на теплоощущения человека.
Tes - Эффективная температура на солнце - температура, которую ощущает человек, с поправкой на солнечный нагрев. Характеристика знойности погоды. Зависит от высоты солнца над горизонтом, облачности и скорости ветра. Ночью, в пасмурную погоду, а также при ветре 12 м/с и более поправка равна нулю.
P - Атмосферное давление - приведенное к уровню моря атмосферное давление.
Po - Атмосферное давление - измеренное на уровне метеостанции атмосферное давление.
Tmin - Минимальная температура - минимум температуры воздуха на высоте 2 м над землей.
Tmax - Максимальная температура - максимум температуры воздуха на высоте 2 м над землей.
R - Количество осадков - Количество выпавших осадков за период времени, мм. При наведении курсора мыши на число - период времени, за который выпало указанное количество осадков.
R24 - Количество осадков - Количество выпавших осадков за 24 часа, мм.
S - Снежный покров - Высота снежного покрова, см. При наведении курсора мыши на число - состояние снежного покрова и степень покрытия местности в баллах.